Regional Weather Roundup
Issued by NWS Sterling, VA

Home | Current Version | Previous Version | Text Only | Print | Product List | Glossary On
Versions: 1 2 3 4 5 6 7 8 9 10 11 12 13 14 15 16 17 18 19 20 21 22 23 24 25 26 27 28 29 30 31 32 33 34 35 36 37 38 39 40 41 42 43 44 45 46 47 48 49 50
000
ASUS41 KLWX 070510
RWRLWX

REGIONAL WEATHER ROUNDUP
NATIONAL WEATHER SERVICE BALTIMORE MD/WASHINGTON DC
100 AM EDT TUE JUL 07 2015

Note: "FAIR" indicates few or no clouds below 12,000 feet
with no significant weather and/or obstructions to visibility.
 TC=TEMPERATURE CELSIUS

 * =Non NWS site. Station does not report precipitation (e.g. rain,
    snow, etc.), thunder, or fog.

DCZ001-MDZ009-015-VAZ040>042-051-053>054-070600-
WASHINGTON METRO

CITY           SKY/WX    TMP DP  RH WIND       PRES   REMARKS
WASHINGTON NAT PTCLDY    77  71  82 S9        30.03F
DULLES         PTCLDY    72  70  93 S3        30.03S
ANDREWS AFB    CLEAR     71  71  99 S6        30.03F
FT BELVOIR     CLEAR     73  71  93 S2        30.03F
COLLEGE PARK*  CLEAR     72  72 100 CALM      30.02F
LEESBURG*      PTCLDY    73  73 100 S7        30.03F
MANASSAS*      CLEAR     72  72 100 SE3         N/A
GAITHERSBURG*  PTCLDY    73  70  88 S6        30.06F

$$

MDZ006>007-011-014-070600-
BALTIMORE METRO

CITY           SKY/WX    TMP DP  RH WIND       PRES   REMARKS
BWI AIRPORT    PTCLDY    72  71  97 S3        30.02F
MD SCIENCE CTR   N/A     74  71  91 MISG      30.03F
MARTIN STATE   CLOUDY    77  73  88 S5        30.04S
ANNAPOLIS      CLEAR     76  69  79 S7        30.02F
FORT MEADE*    CLEAR     70  68  94 CALM      30.05F

$$

MDZ012-015-019>023-070600-
MARYLAND EASTERN SHORE

CITY           SKY/WX    TMP DP  RH WIND       PRES   REMARKS
OCEAN CITY     PTCLDY    76  74  93 VRB6      30.07F
SALISBURY      PTCLDY    74  74 100 SE5       30.06S
BAY BRIDGE AP*   N/A     77  70  78 S8        30.03F
CAMBRIDGE*     MOCLDY    75  72  88 W5        30.05S
EASTON*        PTCLDY    74  74 100 S5        30.08F

$$

MDZ017>025-070600-
SOUTHERN MARYLAND

CITY           SKY/WX    TMP DP  RH WIND       PRES   REMARKS
PATUXENT RIVER CLEAR     74  72  93 S5        30.04S
ST INIGOES     NOT AVBL
LEONARDTOWN*   CLEAR     72  70  94 CALM      30.06S

$$

MDZ003>005-070600-
NORTH CENTRAL MARYLAND

CITY           SKY/WX    TMP DP  RH WIND       PRES   REMARKS
FREDERICK*     CLOUDY    72  72 100 CALM      30.05S
HAGERSTOWN APT PTCLDY    74  69  85 CALM      30.02F
WESTMINSTER*   CLEAR     72  70  94 SE5       30.04S

$$

MDZ501>502-070600-
WESTERN MARYLAND

CITY           SKY/WX    TMP DP  RH WIND       PRES   REMARKS
OAKLAND*       MOCLDY    63 N/A N/A SW7       30.13S HAZE
CUMBERLAND*    PTCLDY    70  70 100 CALM      30.07F

$$

VAZ025>031-070600-
SHENANDOAH VALLEY

CITY           SKY/WX    TMP DP  RH WIND       PRES   REMARKS
WINCHESTER*    CLEAR     70  70 100 CALM      30.03F
FRONT ROYAL*   FAIR      70  68  94 CALM      30.03S
LURAY*         FAIR      72  72 100 CALM      30.05S
NEW MARKET*    MOCLDY    68  67  98 CALM      30.04S
STAUNTON*      CLEAR     70  68  92 CALM      30.09F
WAYNESBORO*    FAIR      69  67  93 SW3       30.09F

$$

WVZ021-048>050-054>055-070600-
EASTERN WEST VIRGINIA PANHANDLE

CITY           SKY/WX    TMP DP  RH WIND       PRES   REMARKS
MARTINSBURG    CLEAR     70  68  93 CALM      30.03S
PETERSBURG*    FOG       66  64  93 CALM      30.06S VSB 1/4

$$

VAZ036>039-050-070600-
CENTRAL FOOTHILLS

CITY           SKY/WX    TMP DP  RH WIND       PRES   REMARKS
CHARLOTTESVILL CLEAR     71  69  93 SW5       30.04F
CULPEPER*      CLEAR     69  69  99 CALM      30.03F
ORANGE*        MOCLDY    72  70  94 CALM      30.05F FOG
GORDONSVILLE*  CLOUDY    70  70 100 CALM      30.03F
WARRENTON*     FAIR      72  72  99 CALM      30.02F

$$

VAZ055>057-070600-
NORTH AND CENTRAL PIEDMONT

CITY           SKY/WX    TMP DP  RH WIND       PRES   REMARKS
FREDERICKSBRG* CLEAR     74  74 100 CALM      30.02F
STAFFORD*      CLEAR     71  69  93 CALM      30.07F

$$

NCZ024-NYZ072-PAZ021-071-VAZ022-071-070600-
OTHER REGIONAL OBSERVATIONS

CITY           SKY/WX    TMP DP  RH WIND       PRES   REMARKS
NEW YORK CITY  CLOUDY    76  69  79 CALM      30.11S
PHILADELPHIA   CLOUDY    77  72  84 SE7       30.05S
PITTSBURGH     PTCLDY    69  66  90 S5        30.03S
ROANOKE        MOCLDY    69  67  93 CALM      30.12F
RICHMOND       PTCLDY    75  72  90 CALM      30.04F
RALEIGH        MOCLDY    73  67  81 SW6       30.11R

$$

ANZ530>537-070600-
MARINE OBSERVATIONS

STATION/POSITION TIME  TEMP    WIND        PRES
                       AIR SEA DIR/SP/G
                 (UTC) (F)     (DEG/KT/KT) (MB)
THOMAS PT LIGHT  NOT AVBL
BALT KEY BRIDGE  0400   76     180/ 16/ 19 1016.3F
COVE POINT       0400   76     220/  9/ 11 1017.9F
LEWISETTA        0400   76 82  210/  6/  8 1017.2R
SOLOMONS ISLAND  0400      81                N/A
PINEY POINT      0400          200/  5/  6   N/A

$$



USA.gov is the U.S. government's official web portal to all federal, state and local government web resources and services.